Palma de Mallorca, Spain

5:11 PM CEST on September 21, 2017 (GMT +0200)
Palma De Mallorca

Weather History for LEPA - October, 2014

Change the Weather History Date:

Friday, October 10, 2014

  Actual Average Record
Temperature  
Mean Temperature 71 °F -  
Max Temperature 81 °F 70 °F 82 °F (2011)
Min Temperature 61 °F 52 °F 48 °F (1998)
Cooling Degree Days 6    
Growing Degree Days 21 (Base 50)    
Moisture  
Dew Point 67 °F    
Average Humidity 84    
Maximum Humidity 100    
Minimum Humidity 59    
Precipitation  
Precipitation 0.00 in 0.08 in - ()
Sea Level Pressure  
Sea Level Pressure 29.93 in    
Wind  
Wind Speed 3 mph ()    
Max Wind Speed 12 mph    
Max Gust Speed -    
Visibility 6.8 miles    
Events      
Averages and records for this station are not official NWS values.
T = Trace of Precipitation, MM = Missing Value Source: Averaged Metar Reports

Daily Weather History Graph

Daily Weather History Graph

Search for Another Location

Airport or City:

Trip Planner

Search our weather history database for the weather conditions in past years. The results will help you decide how hot, cold, wet, or windy it might be!

Date:

Astronomy

Oct. 10, 2014 Rise Set
Actual Time 7:53 AM CEST 7:17 PM CEST
Civil Twilight 7:26 AM CEST 7:44 PM CEST
Nautical Twilight 6:55 AM CEST 8:15 PM CEST
Astronomical Twilight 6:24 AM CEST 8:46 PM CEST
Moon 8:47 PM CEST (10/10) 9:57 AM CEST (10/10)
Length of Visible Light 12h 17m
Length of Day
11h 23m
Waning Gibbous, 95% of the Moon is Illuminated
Oct 10
Waning Gibbous
Oct 15
Last Quarter
Oct 23
New
Oct 31
First Quarter
Nov 6
Full

Hourly Weather History & Observations

Time (CEST) Temp. Heat Index Dew Point Humidity Pressure Visibility Wind Dir Wind Speed Gust Speed Precip Events Conditions
12:00 AM 67 °F - 66 °F 95% 29.95 in - Calm Calm - -  
12:00 AM 66.2 °F - 66.2 °F 100% 29.95 in 6.2 mi Calm Calm - N/A   Scattered Clouds
12:30 AM 66.2 °F - 66.2 °F 100% 29.95 in 6.2 mi Calm Calm - N/A   Scattered Clouds
1:00 AM 67 °F - 65 °F 92% 29.96 in - NNW 2.3 mph - -  
1:00 AM 66.2 °F - 66.2 °F 100% 29.95 in 6.2 mi Calm Calm - N/A   Scattered Clouds
1:30 AM 68.0 °F - 66.2 °F 94% 29.95 in 6.2 mi ENE 2.3 mph - N/A   Scattered Clouds
2:00 AM 66 °F - 64 °F 93% 29.95 in 11 mi ENE 2.3 mph - -   Partly Cloudy
2:00 AM 66.2 °F - 66.2 °F 100% 29.95 in 6.2 mi Calm Calm - N/A   Scattered Clouds
2:30 AM 66.2 °F - 64.4 °F 94% 29.95 in 6.2 mi Calm Calm - N/A   Scattered Clouds
3:00 AM 65 °F - 64 °F 96% 29.94 in - Calm Calm - -  
3:00 AM 66.2 °F - 64.4 °F 94% 29.92 in 6.2 mi Calm Calm - N/A   Scattered Clouds
3:30 AM 64.4 °F - 64.4 °F 100% 29.92 in 6.2 mi Calm Calm - N/A   Partly Cloudy
4:00 AM 64 °F - 63 °F 95% 29.92 in - North 1.2 mph - -  
4:00 AM 64.4 °F - 64.4 °F 100% 29.92 in 6.2 mi NNW 1.2 mph - N/A   Partly Cloudy
4:30 AM 64.4 °F - 64.4 °F 100% 29.92 in 5.6 mi Calm Calm - N/A   Partly Cloudy
5:00 AM 63 °F - 62 °F 97% 29.92 in 6 mi East 1.2 mph - -   Mist
5:00 AM 64.4 °F - 62.6 °F 94% 29.92 in 5.6 mi Calm Calm - N/A   Partly Cloudy
5:30 AM 62.6 °F - 62.6 °F 100% 29.92 in 5.6 mi Calm Calm - N/A   Scattered Clouds
6:00 AM 63 °F - 62 °F 96% 29.92 in - ENE 3.5 mph - -  
6:00 AM 62.6 °F - 62.6 °F 100% 29.92 in 5.6 mi NE 2.3 mph - N/A   Scattered Clouds
6:30 AM 64.4 °F - 62.6 °F 94% 29.92 in 5.6 mi Calm Calm - N/A   Partly Cloudy
7:00 AM 62 °F - 61 °F 97% 29.92 in - ENE 2.3 mph - -  
7:00 AM 62.6 °F - 62.6 °F 100% 29.92 in 5.6 mi Calm Calm - N/A   Partly Cloudy
7:30 AM 62.6 °F - 62.6 °F 100% 29.92 in 5.6 mi Variable 2.3 mph - N/A   Scattered Clouds
8:00 AM 63 °F - 63 °F 98% 29.93 in 9 mi Calm Calm - -   Partly Cloudy
8:00 AM 62.6 °F - 62.6 °F 100% 29.92 in 5.6 mi Calm Calm - N/A   Scattered Clouds
8:30 AM 64.4 °F - 64.4 °F 100% 29.92 in 5.6 mi Calm Calm - N/A   Scattered Clouds
9:00 AM 67 °F - 66 °F 94% 29.94 in - ENE 2.3 mph - -  
9:00 AM 68.0 °F - 66.2 °F 94% 29.92 in 5.6 mi Calm Calm - N/A   Partly Cloudy
9:30 AM 69.8 °F - 68.0 °F 94% 29.92 in 5.6 mi Calm Calm - N/A   Partly Cloudy
10:00 AM 73 °F - 69 °F 82% 29.94 in - NNE 2.3 mph - -  
10:00 AM 73.4 °F - 69.8 °F 88% 29.95 in 6.2 mi Calm Calm - N/A   Scattered Clouds
10:30 AM 75.2 °F - 69.8 °F 83% 29.95 in 6.2 mi Calm Calm - N/A   Scattered Clouds
11:00 AM 78 °F - 68 °F 65% 29.94 in 12 mi WSW 1.2 mph - -   Partly Cloudy
11:00 AM 78.8 °F - 69.8 °F 74% 29.95 in 5.6 mi Variable 1.2 mph - N/A   Scattered Clouds
11:30 AM 77.0 °F - 68.0 °F 74% 29.92 in 6.2 mi Variable 2.3 mph - N/A   Partly Cloudy
12:00 PM 79 °F - 69 °F 63% 29.95 in - SSW 9.2 mph - -  
12:00 PM 78.8 °F - 69.8 °F 74% 29.95 in 6.2 mi SW 5.8 mph - N/A   Partly Cloudy
12:30 PM 78.8 °F - 69.8 °F 74% 29.95 in 6.2 mi SSW 10.4 mph - N/A   Scattered Clouds
1:00 PM 80 °F - 69 °F 61% 29.94 in - SW 9.2 mph - -  
1:00 PM 78.8 °F - 71.6 °F 78% 29.95 in 6.2 mi SW 9.2 mph - N/A   Scattered Clouds
1:30 PM 78.8 °F - 71.6 °F 78% 29.92 in 6.2 mi SW 9.2 mph - N/A   Scattered Clouds
2:00 PM 81 °F - 69 °F 59% 29.93 in 16 mi SSW 10.4 mph - -   Partly Cloudy
2:00 PM 80.6 °F 83.9 °F 69.8 °F 70% 29.92 in 6.2 mi SSW 9.2 mph - N/A   Scattered Clouds
2:30 PM 78.8 °F - 69.8 °F 74% 29.92 in 5.6 mi SSW 10.4 mph - N/A   Scattered Clouds
3:00 PM 81 °F - 69 °F 60% 29.92 in - SSW 11.5 mph - -  
3:00 PM 78.8 °F - 69.8 °F 74% 29.92 in 5.6 mi SW 11.5 mph - N/A   Scattered Clouds
3:30 PM 78.8 °F - 69.8 °F 74% 29.92 in 6.2 mi SW 10.4 mph - N/A   Scattered Clouds
4:00 PM 80 °F - 69 °F 62% 29.92 in - SW 11.5 mph - -  
4:00 PM 78.8 °F - 69.8 °F 74% 29.92 in 6.2 mi SW 10.4 mph - N/A   Scattered Clouds
4:30 PM 78.8 °F - 71.6 °F 78% 29.92 in 6.2 mi SW 11.5 mph - N/A   Scattered Clouds
5:00 PM 78 °F - 69 °F 68% 29.91 in 16 mi SW 11.5 mph - -   Partly Cloudy
5:00 PM 77.0 °F - 69.8 °F 78% 29.92 in 6.2 mi SSW 9.2 mph - N/A   Scattered Clouds
5:30 PM 77.0 °F - 69.8 °F 78% 29.89 in 6.2 mi SSW 8.1 mph - N/A   Scattered Clouds
6:00 PM 77 °F - 69 °F 71% 29.91 in - SW 10.4 mph - -  
6:00 PM 77.0 °F - 69.8 °F 78% 29.89 in 6.2 mi SSW 9.2 mph - N/A   Scattered Clouds
6:30 PM 77.0 °F - 69.8 °F 78% 29.89 in 6.2 mi SSW 9.2 mph - N/A   Scattered Clouds
7:00 PM 76 °F - 70 °F 75% 29.91 in - SSW 10.4 mph - -  
7:00 PM 77.0 °F - 69.8 °F 78% 29.89 in 6.2 mi SSW 6.9 mph - N/A   Scattered Clouds
7:30 PM 75.2 °F - 69.8 °F 83% 29.92 in 6.2 mi SSW 6.9 mph - N/A   Scattered Clouds
8:00 PM 75 °F - 69 °F 78% 29.93 in 12 mi SW 10.4 mph - -   Partly Cloudy
8:00 PM 75.2 °F - 69.8 °F 83% 29.92 in 6.2 mi SSW 8.1 mph - N/A   Scattered Clouds
8:30 PM 75.2 °F - 69.8 °F 83% 29.92 in 6.2 mi SW 8.1 mph - N/A   Partly Cloudy
9:00 PM 75 °F - 69 °F 76% 29.94 in - SW 10.4 mph - -  
9:00 PM 75.2 °F - 69.8 °F 83% 29.95 in 6.2 mi SW 8.1 mph - N/A   Scattered Clouds
9:30 PM 75.2 °F - 68.0 °F 78% 29.95 in 6.2 mi SW 6.9 mph - N/A   Scattered Clouds
10:00 PM 74 °F - 68 °F 77% 29.96 in - WSW 9.2 mph - -  
10:00 PM 75.2 °F - 69.8 °F 83% 29.95 in 6.2 mi SW 5.8 mph - N/A   Scattered Clouds
10:30 PM 75.2 °F - 69.8 °F 83% 29.95 in 6.2 mi SW 5.8 mph - N/A   Scattered Clouds
11:00 PM 75 °F - 68 °F 74% 29.96 in 9 mi SW 9.2 mph - -   Mostly Cloudy
11:00 PM 75.2 °F - 69.8 °F 83% 29.95 in 6.2 mi SSW 5.8 mph - N/A   Scattered Clouds
11:30 PM 75.2 °F - 69.8 °F 83% 29.95 in 6.2 mi SW 4.6 mph - N/A   Scattered Clouds